Regional Weather Roundup
Issued by NWS

Home | Current Version | Previous Version | Text Only | Print | Product List | Glossary Off
Versions: 1 2 3 4 5 6 7 8 9 10 11 12 13 14 15 16 17 18 19 20 21 22 23 24 25 26 27 28 29 30 31 32 33 34 35 36 37 38 39 40 41 42 43 44 45 46 47 48 49 50

784
ASUS43 KDTX 022210
RWRMI
MICHIGAN HOURLY REGIONAL WEATHER ROUNDUP
NATIONAL WEATHER SERVICE DETROIT/PONTIAC MI
600 PM EDT MON MAY 02 2016

NOTE: "FAIR" INDICATES FEW OR NO CLOUDS BELOW 12,000 FEET WITH NO
SIGNIFICANT WEATHER AND/OR OBSTRUCTION TO VISIBILITY.

MIZ047>049-052>055-059>063-066>070-074>076-081>083-022300-
SOUTHEAST LOWER MICHIGAN

CITY           SKY/WX    TMP DP  RH WIND       PRES   REMARKS
ADRIAN         CLOUDY    51  46  83 NE5       30.01F
ALMA           MOSUNNY   56  38  49 E6        30.02F
ANN ARBOR      CLOUDY    52  44  74 NE6       30.01S
BAD AXE        SUNNY     56  32  39 NE7       30.02F
CARO           SUNNY     59  34  39 CALM      30.00S
DETROIT CITY   CLOUDY    54  42  64 CALM      30.00S
DETROIT        CLOUDY    53  43  68 CALM      30.01F
FLINT          CLOUDY    59  38  45 CALM      30.00F
GROSSE ILE     CLOUDY    54  45  71 CALM      29.99F
HILLSDALE      CLOUDY    50  46  86 NE6       30.00S
HOWELL         CLOUDY    54  42  64 NE3       30.01S

CITY           SKY/WX    TMP DP  RH WIND       PRES   REMARKS
JACKSON        CLOUDY    52  44  74 NE3       30.01S
LAMBERTVILLE   CLOUDY    53  46  77 E3        30.00F
LANSING        CLOUDY    55  41  59 E6        30.01F
LAPEER         FAIR      56  33  40 NE7       30.00F
MASON          CLOUDY    51  44  77 NE5       30.01F
MONROE         CLOUDY    52  46  78 NE5       30.00S
MT. CLEMENS    CLOUDY    55  44  68 S2        29.99F
PONTIAC        CLOUDY    54  41  61 N3        29.99F
PORT HOPE        N/A     48  40  73 CALM      30.02S
PORT HURON     SUNNY     52  39  62 NE8       30.01S
TRI CITIES     SUNNY     59  34  39 NE9       30.03F
MIDLAND        FAIR      58  30  34 E8        30.02S
TROY           CLOUDY    55  43  63 CALM      30.02S
SAGINAW HB     SUNNY     57  36  44 N10       30.01S
$$
MIZ043>046-050>051-056>058-064>065-071>073-077>080-022300-
SOUTHWEST LOWER MICHIGAN

CITY           SKY/WX    TMP DP  RH WIND       PRES   REMARKS
BATTLE CREEK   CLOUDY    53  43  68 NE6       30.00F
BENTON HARBOR  CLOUDY    50  37  61 VRB3      30.02F
BIG RAPIDS     CLOUDY    59  31  34 SE7       29.99F
COLDWATER      CLOUDY    50  47  88 NE5       30.00F
FREMONT        CLOUDY    60  35  39 SE7       30.00S
HOLLAND        CLOUDY    52  40  63 W6        30.02F
GRAND RAPIDS   CLOUDY    56  42  59 E5        30.01F
IONIA          CLOUDY    53  42  65 E5        30.01F
KALAMAZOO      CLOUDY    54  42  64 NE5       30.01F
LUDINGTON      SUNNY     59  33  37 N17       30.01F
MARSHALL       CLOUDY    52  44  73 E5        30.00F
MOUNT PLEASANT MOSUNNY   60  30  32 SE6       30.01S
MUSKEGON       PTSUNNY   57  40  52 SW6       30.01F
SOUTH HAVEN    CLOUDY    48  38  67 N6        30.02S
$$
MIZ016>042-022300-
NORTHERN LOWER MICHIGAN

CITY           SKY/WX    TMP DP  RH WIND       PRES   REMARKS
ALPENA         SUNNY     61  29  29 SE9       30.00F
BEAVER ISLAND  CLOUDY    55  36  49 W7        30.03S
BELLAIRE       SUNNY     63  29  27 NW9       30.00S
CADILLAC       CLOUDY    58  28  31 CALM      29.99S
CHARLEVOIX     SUNNY     56  35  45 NW9       30.05S
FRANKFORT      SUNNY     58  36  43 N7        30.01F
GAYLORD        MOSUNNY   60  26  27 CALM      29.99F
GRAYLING       CLOUDY    61  30  31 VRB3      30.00S
HARBOR SPRINGS CLOUDY    47  37  66 SW7       30.01S
HOUGHTON LAKE  CLOUDY    59  31  34 VRB5      30.00S
MANISTEE       SUNNY     55  34  44 NW9       30.02F
OSCODA         SUNNY     55  33  43 E7        30.01F
PELLSTON       CLOUDY    63  30  28 VRB5      30.00F
ROGERS CITY    SUNNY     60  25  26 N3        30.01F
TRAVERSE CITY  MOSUNNY   60  32  34 NE6       30.00F
$$
MIZ007>008-015-022300-
EASTERN UPPER MICHIGAN

CITY           SKY/WX    TMP DP  RH WIND       PRES   REMARKS
KINROSS          N/A     59  28  31 N13       30.00S
MACKINAC ISLAN SUNNY     58  32  38 W7        30.00F
NEWBERRY       SUNNY     59  33  37 W6        30.01S
S. S. MARIE    SUNNY     58  32  37 W12       30.00S
MUNISING         N/A     47  37  68 N6        30.04F
$$
MIZ004>006-011>014-085-022300-
CENTRAL UPPER MICHIGAN

CITY           SKY/WX    TMP DP  RH WIND       PRES   REMARKS
MANISTIQUE     CLOUDY    54  35  48 SW8       30.02S
ESCANABA       PTSUNNY   59  32  36 S9        30.01S
MENOMINEE      SUNNY     61  28  29 SE13      30.01F
SAWYER-GWINN   SUNNY     55  32  41 NE8       30.05F
$$
MIZ001>003-009>011-084-022300-
WESTERN UPPER MICHIGAN

CITY           SKY/WX    TMP DP  RH WIND       PRES   REMARKS
IRON MOUNTAIN  CLOUDY    65  27  23 VRB6      29.97F
HOUGHTON       SUNNY     58  33  39 CALM      30.02F
COPPER HARBOR    N/A     50  36  58 CALM      30.02F
IRONWOOD         N/A     61  30  31 NW6       29.99F
$$

ABBREVIATIONS USED IN REMARKS
   TC - TEMPERATURE IN CELSIUS
  WCI - WIND CHILL INDEX
   HX - HEAT INDEX
  VSB - VISIBILITY





USA.gov is the U.S. government's official web portal to all federal, state and local government web resources and services.